Retour au catalogue

STARLINK-31260

ActifCommunicationsVLEO
NORAD 58881·PAYLOAD·🇺🇸 United States

Lancé Jan 29, 2024 depuis Vandenberg Space Force Base

Loading…

Prochains Passages (prochaines 24 heures)

TLE

FraisSource: CelesTrak SupGP

Époque: Sep 14, 2026, 21:20 UTC

1 58881C 24020F   26257.88937500 -.00055765  00000+0 -16471-2 0  2577
2 58881  53.1581 160.1105 0001307  90.2895  58.9714 15.34428431    13

Suivez STARLINK-31260 en temps réel avec AllMySat

Download on the App Store